When you browse on this site, cookies collect data to enhance your experience and personalize the content and advertising you see.
Visit our Privacy Policy to learn more. By continuing to use the site, you agree to this use of cookies and data.
  • In Romania
  • List of Countries
  • For 7 days
  • Water Temperature
  • Satellite Maps
  • Weather Map
  • Weather Widgets
  • user-avatar
    Login

    Hourly Weather Kowary

    Today, 25 May, Saturday

    Time Temperature Precipitation Wind Pressure Humidity
    00:00 +12°C° 0 mm 2 mps 737 mmHg 92%
    01:00 +10°C° 0 mm 2 mps 737 mmHg 92%
    02:00 +10°C° 0 mm 2 mps 737 mmHg 92%
    03:00 +10°C° 0 mm 2 mps 737 mmHg 92%
    04:00 +9°C° 0 mm 2 mps 737 mmHg 93%
    05:00 +12°C° 0 mm 2 mps 737 mmHg 89%
    06:00 +13°C° 0 mm 2 mps 737 mmHg 85%
    07:00 +15°C° 0 mm 2 mps 737 mmHg 81%
    08:00 +16°C° 0 mm 3 mps 737 mmHg 73%
    09:00 +18°C° 0 mm 3 mps 737 mmHg 66%
    10:00 +20°C° 0 mm 3 mps 738 mmHg 59%
    11:00 +20°C° 0 mm 3 mps 737 mmHg 57%
    12:00 +21°C° 0 mm 3 mps 737 mmHg 56%
    13:00 +21°C° 0 mm 3 mps 737 mmHg 54%
    14:00 +21°C° 0 mm 3 mps 737 mmHg 56%
    15:00 +22°C° 0 mm 3 mps 737 mmHg 58%
    16:00 +22°C° 0 mm 3 mps 737 mmHg 60%
    17:00 +20°C° 0.2 mm 2 mps 737 mmHg 67%
    18:00 +18°C° 0.2 mm 2 mps 737 mmHg 73%
    19:00 +17°C° 0.2 mm 2 mps 737 mmHg 79%
    20:00 +16°C° 0 mm 1 mps 737 mmHg 82%
    21:00 +15°C° 0 mm 1 mps 737 mmHg 85%
    22:00 +14°C° 0 mm 1 mps 738 mmHg 87%
    23:00 +14°C° 0 mm 1 mps 738 mmHg 88%

    Tomorrow, 26 May, Sunday

    Time Temperature Precipitation Wind Pressure Humidity
    00:00 +13°C° 0 mm 1 mps 738 mmHg 89%
    01:00 +13°C° 0 mm 1 mps 738 mmHg 90%
    02:00 +13°C° 0 mm 1 mps 738 mmHg 90%
    03:00 +12°C° 0 mm 1 mps 738 mmHg 91%
    04:00 +12°C° 0 mm 1 mps 738 mmHg 91%
    05:00 +14°C° 0 mm 2 mps 738 mmHg 88%
    06:00 +15°C° 0 mm 2 mps 738 mmHg 85%
    07:00 +17°C° 0 mm 2 mps 738 mmHg 82%
    08:00 +18°C° 0.2 mm 2 mps 738 mmHg 79%
    09:00 +19°C° 0.2 mm 3 mps 738 mmHg 75%
    10:00 +20°C° 0.2 mm 3 mps 738 mmHg 72%
    11:00 +21°C° 0.1 mm 3 mps 738 mmHg 69%
    12:00 +21°C° 0.1 mm 3 mps 738 mmHg 65%
    13:00 +22°C° 0.1 mm 3 mps 738 mmHg 62%
    14:00 +22°C° 0.2 mm 3 mps 737 mmHg 63%
    15:00 +22°C° 0.2 mm 3 mps 737 mmHg 63%
    16:00 +23°C° 0.2 mm 2 mps 737 mmHg 64%
    17:00 +21°C° 0.4 mm 2 mps 737 mmHg 69%
    18:00 +19°C° 0.4 mm 2 mps 737 mmHg 75%
    19:00 +18°C° 0.4 mm 2 mps 737 mmHg 81%
    20:00 +17°C° 0 mm 2 mps 737 mmHg 84%
    21:00 +16°C° 0 mm 2 mps 737 mmHg 86%
    22:00 +15°C° 0 mm 2 mps 738 mmHg 88%
    23:00 +15°C° 0 mm 2 mps 738 mmHg 90%

    Day after tomorrow, 27 May, Monday

    Time Temperature Precipitation Wind Pressure Humidity
    00:00 +15°C° 0 mm 2 mps 737 mmHg 91%
    01:00 +14°C° 0 mm 2 mps 737 mmHg 92%
    02:00 +14°C° 0 mm 2 mps 737 mmHg 92%
    03:00 +14°C° 0 mm 2 mps 737 mmHg 92%
    04:00 +14°C° 0 mm 2 mps 736 mmHg 92%
    05:00 +15°C° 0 mm 2 mps 737 mmHg 88%
    06:00 +17°C° 0 mm 2 mps 737 mmHg 85%
    07:00 +19°C° 0 mm 2 mps 737 mmHg 82%
    08:00 +20°C° 0.2 mm 3 mps 737 mmHg 76%
    09:00 +21°C° 0.2 mm 3 mps 737 mmHg 71%
    10:00 +23°C° 0.2 mm 4 mps 736 mmHg 66%
    11:00 +23°C° 0.3 mm 4 mps 736 mmHg 63%
    12:00 +25°C° 0.3 mm 3 mps 736 mmHg 61%
    13:00 +26°C° 0.3 mm 3 mps 736 mmHg 59%
    14:00 +25°C° 0.3 mm 3 mps 736 mmHg 61%
    15:00 +25°C° 0.3 mm 2 mps 735 mmHg 63%
    16:00 +25°C° 0.3 mm 2 mps 735 mmHg 65%
    17:00 +24°C° 0.4 mm 2 mps 735 mmHg 69%
    18:00 +21°C° 0.4 mm 2 mps 735 mmHg 74%
    19:00 +20°C° 0.4 mm 2 mps 735 mmHg 79%
    20:00 +20°C° 0 mm 1 mps 735 mmHg 81%
    21:00 +19°C° 0 mm 1 mps 735 mmHg 82%
    22:00 +18°C° 0 mm 1 mps 735 mmHg 84%
    23:00 +18°C° 0.6 mm 1 mps 735 mmHg 86%

    28 May, Tuesday

    Time Temperature Precipitation Wind Pressure Humidity
    00:00 +18°C° 0.6 mm 1 mps 735 mmHg 89%
    01:00 +16°C° 0.6 mm 1 mps 734 mmHg 91%
    02:00 +16°C° 1 mm 1 mps 734 mmHg 93%
    03:00 +16°C° 1 mm 1 mps 734 mmHg 94%
    04:00 +16°C° 1 mm 1 mps 733 mmHg 95%
    05:00 +18°C° 0.1 mm 1 mps 733 mmHg 94%
    06:00 +19°C° 0.1 mm 1 mps 733 mmHg 92%
    07:00 +20°C° 0.1 mm 1 mps 733 mmHg 90%
    08:00 +20°C° 0 mm 2 mps 733 mmHg 83%
    09:00 +23°C° 0 mm 2 mps 733 mmHg 77%
    10:00 +24°C° 0 mm 2 mps 733 mmHg 70%
    11:00 +24°C° 0.8 mm 2 mps 732 mmHg 71%
    12:00 +24°C° 0.8 mm 2 mps 732 mmHg 72%
    13:00 +24°C° 0.8 mm 2 mps 732 mmHg 74%
    14:00 +23°C° 3.1 mm 2 mps 732 mmHg 78%
    15:00 +21°C° 3.1 mm 2 mps 731 mmHg 82%
    16:00 +20°C° 3.1 mm 2 mps 731 mmHg 86%
    17:00 +19°C° 0.2 mm 2 mps 731 mmHg 88%
    18:00 +19°C° 0.2 mm 2 mps 731 mmHg 89%
    19:00 +18°C° 0.2 mm 2 mps 731 mmHg 91%
    20:00 +18°C° 1.3 mm 2 mps 731 mmHg 90%
    21:00 +18°C° 1.3 mm 2 mps 732 mmHg 89%
    22:00 +17°C° 1.3 mm 2 mps 732 mmHg 88%
    23:00 +17°C° 0 mm 2 mps 732 mmHg 90%

    29 May, Wednesday

    Time Temperature Precipitation Wind Pressure Humidity
    00:00 +16°C° 0 mm 3 mps 732 mmHg 92%
    01:00 +14°C° 0 mm 3 mps 732 mmHg 94%
    02:00 +14°C° 0.3 mm 3 mps 733 mmHg 95%
    03:00 +14°C° 0.3 mm 3 mps 733 mmHg 96%
    04:00 +14°C° 0.3 mm 3 mps 734 mmHg 96%
    05:00 +13°C° 1 mm 4 mps 735 mmHg 95%
    06:00 +13°C° 1 mm 5 mps 735 mmHg 94%
    07:00 +11°C° 1 mm 6 mps 736 mmHg 93%
    08:00 +11°C° 1 mm 6 mps 737 mmHg 93%
    09:00 +10°C° 1 mm 6 mps 737 mmHg 93%
    10:00 +10°C° 1 mm 5 mps 738 mmHg 92%
    11:00 +10°C° 0.2 mm 5 mps 739 mmHg 91%
    12:00 +12°C° 0.2 mm 4 mps 739 mmHg 89%
    13:00 +12°C° 0.2 mm 3 mps 740 mmHg 87%
    14:00 +12°C° 0 mm 3 mps 740 mmHg 86%
    15:00 +13°C° 0 mm 3 mps 741 mmHg 85%
    16:00 +14°C° 0 mm 2 mps 741 mmHg 84%
    17:00 +14°C° 0 mm 2 mps 742 mmHg 84%
    18:00 +13°C° 0 mm 3 mps 742 mmHg 84%
    19:00 +12°C° 0 mm 3 mps 742 mmHg 84%
    20:00 +11°C° 0 mm 3 mps 743 mmHg 86%
    21:00 +10°C° 0 mm 3 mps 743 mmHg 87%
    22:00 +9°C° 0 mm 3 mps 744 mmHg 88%
    23:00 +9°C° 0 mm 3 mps 744 mmHg 89%

    30 May, Thursday

    Time Temperature Precipitation Wind Pressure Humidity
    00:00 +8°C° 0 mm 3 mps 744 mmHg 91%
    01:00 +8°C° 0 mm 3 mps 744 mmHg 92%
    02:00 +7°C° 0 mm 2 mps 745 mmHg 92%
    03:00 +7°C° 0 mm 2 mps 745 mmHg 93%
    04:00 +7°C° 0 mm 2 mps 745 mmHg 93%
    05:00 +8°C° 0 mm 2 mps 745 mmHg 87%
    06:00 +9°C° 0 mm 2 mps 745 mmHg 81%
    07:00 +10°C° 0 mm 2 mps 746 mmHg 75%
    08:00 +10°C° 0.1 mm 2 mps 745 mmHg 69%
    09:00 +12°C° 0.1 mm 2 mps 745 mmHg 64%
    10:00 +13°C° 0.1 mm 1 mps 745 mmHg 59%
    11:00 +12°C° 0.3 mm 2 mps 745 mmHg 64%
    12:00 +12°C° 0.3 mm 2 mps 745 mmHg 70%
    13:00 +12°C° 0.3 mm 2 mps 744 mmHg 75%
    14:00 +12°C° 0 mm 2 mps 744 mmHg 75%
    15:00 +12°C° 0 mm 1 mps 744 mmHg 75%
    16:00 +12°C° 0 mm 1 mps 744 mmHg 75%
    17:00 +11°C° 0 mm 1 mps 743 mmHg 76%
    18:00 +11°C° 0 mm 1 mps 743 mmHg 77%
    19:00 +10°C° 0 mm 0 mps 743 mmHg 78%
    20:00 +10°C° 0 mm 1 mps 743 mmHg 75%
    21:00 +10°C° 0 mm 1 mps 743 mmHg 72%
    22:00 +10°C° 0 mm 1 mps 743 mmHg 69%
    23:00 +9°C° 0 mm 1 mps 743 mmHg 69%
    Show more